Date String (YYYY-MM-DD hh:mm:ss) UTC,Instrument flags,absolute air pressure of the measurement (hPa),sample flow rate (lpm),inlet stack bypass flow (lpm),air temperature of the measurement (°C),ambient temperature measured by the external sensor (°C),aerosol sample conditioner tube jacket temperature (°C),OPC LED temperature (°C),internal box temperature (°C),relative humidity of the measurement (%),span deviation,mass concentration of particles derived from Lorenz-Mie calculation of OPC scattering (μg/m³),mass concentration of particles derived from Lorenz-Mie calculation of OPC scattering (μg/m³),mass concentration of particles derived from Lorenz-Mie calculation of OPC scattering (μg/m³)
DateTimeUTC,F1_M11,P_M11,Q1_M11,Q2_M11,T1_M11,T2_M11,T3_M11,T4_M11,T5_M11,U1_M11,ZSPAN_M11,X0_M11,X2_M11,X1_M11
2023-06-23 01:00:00,SystemResetWarning,0830.9,5.00,000.00,032.0,025.7,000.0,039.8,032.1,33.1,0000.0,0006.53,0003.88,0003.44
2023-06-23 01:01:00,SystemResetWarning,0830.9,5.00,000.00,031.9,025.6,000.0,039.8,031.8,32.7,0000.0,0006.50,0003.88,0003.44
2023-06-23 01:02:00,SystemResetWarning,0831.0,5.01,000.00,031.7,025.9,000.0,039.8,031.6,33.5,0000.0,0006.65,0003.89,0003.43
2023-06-23 01:03:00,SystemResetWarning,0830.9,5.00,000.00,031.7,026.3,000.0,039.8,031.6,34.2,0000.0,0006.52,0003.88,0003.41
2023-06-23 01:04:00,SystemResetWarning,0830.9,5.00,000.00,031.6,026.7,000.0,039.8,031.6,36.0,0000.0,0006.25,0003.82,0003.40
2023-06-23 01:05:00,SystemResetWarning,0831.0,5.01,000.00,031.8,027.0,000.0,039.8,031.8,33.6,0000.0,0006.19,0003.79,0003.39
2023-06-23 01:06:00,SystemResetWarning,0831.0,4.98,000.00,031.9,027.3,000.0,039.8,031.9,32.9,0000.0,0006.21,0003.78,0003.39
2023-06-23 01:07:00,SystemResetWarning,0830.9,5.01,000.00,031.9,027.6,000.0,039.8,031.9,32.5,0000.0,0006.38,0003.76,0003.37
2023-06-23 01:08:00,SystemResetWarning,0830.9,5.01,000.00,032.0,027.8,000.0,039.8,031.9,32.6,0000.0,0006.99,0003.75,0003.36
2023-06-23 01:09:00,SystemResetWarning,0830.9,4.99,000.00,032.0,028.0,000.0,039.9,032.0,33.1,0000.0,0007.23,0003.76,0003.34
2023-06-23 01:10:00,SystemResetWarning,0830.9,4.99,000.00,032.0,028.2,000.0,039.9,032.0,32.4,0000.0,0007.13,0003.74,0003.32
2023-06-23 01:11:00,SystemResetWarning,0830.8,5.01,000.00,032.0,028.3,000.0,039.9,032.0,33.1,0000.0,0006.89,0003.68,0003.29
2023-06-23 01:12:00,SystemResetWarning,0830.8,5.01,000.00,032.0,028.4,000.0,040.0,032.0,32.6,0000.0,0006.86,0003.67,0003.27
2023-06-23 01:13:00,SystemResetWarning,0830.8,5.00,000.00,031.9,028.4,000.0,040.0,032.0,32.6,0000.0,0006.52,0003.62,0003.26
2023-06-23 01:14:00,SystemResetWarning,0830.8,4.98,000.00,032.0,026.9,000.0,039.9,032.1,32.3,0000.0,0007.53,0003.62,0003.27
2023-06-23 01:15:00,SystemResetWarning,0830.8,5.01,000.00,031.9,025.2,000.0,039.8,031.9,32.0,0000.0,0007.65,0003.62,0003.27
2023-06-23 01:16:00,SystemResetWarning,0830.8,5.00,000.00,031.9,024.8,000.0,039.8,031.8,31.9,0000.0,0007.70,0003.64,0003.27
2023-06-23 01:17:00,SystemResetWarning,0830.9,5.01,000.00,031.6,025.0,000.0,039.8,031.3,31.9,0000.0,0007.61,0003.61,0003.26
2023-06-23 01:18:00,SystemResetWarning,0830.9,5.00,000.00,031.5,025.5,000.0,039.7,031.4,32.4,0000.0,0007.50,0003.64,0003.26
2023-06-23 01:19:00,SystemResetWarning,0831.0,5.01,000.00,031.4,026.0,000.0,039.7,031.4,33.1,0000.0,0007.27,0003.67,0003.27
2023-06-23 01:20:00,SystemResetWarning,0831.1,5.00,000.00,031.3,026.4,000.0,039.7,031.4,33.7,0000.0,0007.08,0003.65,0003.26
2023-06-23 01:21:00,SystemResetWarning,0831.1,5.00,000.00,031.3,026.8,000.0,039.7,031.4,34.1,0000.0,0006.98,0003.63,0003.25
2023-06-23 01:22:00,SystemResetWarning,0831.1,5.00,000.00,031.2,027.1,000.0,039.6,031.5,34.4,0000.0,0006.95,0003.64,0003.26
2023-06-23 01:23:00,SystemResetWarning,0831.1,5.00,000.00,031.2,027.4,000.0,039.6,031.6,34.8,0000.0,0007.06,0003.65,0003.26
2023-06-23 01:24:00,SystemResetWarning,0831.1,5.00,000.00,031.2,027.6,000.0,039.6,031.6,34.1,0000.0,0007.59,0003.71,0003.26
2023-06-23 01:25:00,SystemResetWarning,0831.1,5.00,000.00,031.2,027.8,000.0,039.6,031.7,33.9,0000.0,0007.02,0003.71,0003.26
2023-06-23 01:26:00,SystemResetWarning,0831.1,5.00,000.00,031.2,028.0,000.0,039.5,031.7,33.8,0000.0,0007.45,0003.72,0003.26
2023-06-23 01:27:00,SystemResetWarning,0831.1,5.00,000.00,031.1,028.1,000.0,039.5,031.7,34.0,0000.0,0007.42,0003.71,0003.27
2023-06-23 01:28:00,SystemResetWarning,0831.0,5.00,000.00,031.1,028.2,000.0,039.5,031.7,34.4,0000.0,0007.70,0003.73,0003.26
2023-06-23 01:29:00,SystemResetWarning,0830.9,5.00,000.00,031.1,028.3,000.0,039.5,031.7,34.3,0000.0,0007.91,0003.71,0003.26
2023-06-23 01:30:00,SystemResetWarning,0830.9,5.00,000.00,031.1,028.4,000.0,039.5,031.8,34.6,0000.0,0007.90,0003.71,0003.26
2023-06-23 01:31:00,SystemResetWarning,0830.9,4.99,000.00,031.1,028.4,000.0,039.5,031.8,35.1,0000.0,0007.96,0003.71,0003.26
2023-06-23 01:32:00,SystemResetWarning,0830.8,5.04,000.00,031.2,028.5,000.0,039.5,031.9,34.9,0000.0,0007.94,0003.71,0003.26
2023-06-23 01:33:00,SystemResetWarning,0830.8,4.97,000.00,031.4,028.1,000.0,039.5,032.0,34.4,0000.0,0007.95,0003.72,0003.26
2023-06-23 01:34:00,SystemResetWarning,0830.7,5.01,000.00,031.5,026.2,000.0,039.4,032.0,34.2,0000.0,0007.85,0003.69,0003.28
2023-06-23 01:35:00,SystemResetWarning,0830.7,5.00,000.00,031.5,024.8,000.0,039.3,031.9,34.4,0000.0,0007.70,0003.67,0003.29
2023-06-23 01:36:00,SystemResetWarning,0830.6,5.01,000.00,031.5,024.6,000.0,039.3,031.6,34.5,0000.0,0007.32,0003.64,0003.29
2023-06-23 01:37:00,SystemResetWarning,0830.6,4.99,000.00,031.2,024.9,000.0,039.3,031.2,35.2,0000.0,0006.79,0003.66,0003.29
2023-06-23 01:38:00,SystemResetWarning,0830.5,5.02,000.00,031.3,025.4,000.0,039.3,031.3,35.2,0000.0,0007.05,0003.69,0003.30
2023-06-23 01:39:00,SystemResetWarning,0830.6,5.01,000.00,031.5,025.9,000.0,039.3,031.4,34.9,0000.0,0007.04,0003.70,0003.31
2023-06-23 01:40:00,SystemResetWarning,0830.7,4.98,000.00,031.7,026.3,000.0,039.4,031.6,34.0,0000.0,0006.33,0003.70,0003.32
2023-06-23 01:41:00,SystemResetWarning,0830.7,5.01,000.00,031.8,026.7,000.0,039.4,031.6,33.4,0000.0,0006.39,0003.73,0003.33
2023-06-23 01:42:00,SystemResetWarning,0830.7,5.00,000.00,031.9,027.1,000.0,039.5,031.6,33.9,0000.0,0006.38,0003.75,0003.34
2023-06-23 01:43:00,SystemResetWarning,0830.8,5.00,000.00,031.9,027.3,000.0,039.5,031.7,33.7,0000.0,0006.63,0003.79,0003.34
2023-06-23 01:44:00,SystemResetWarning,0830.8,4.99,000.00,031.9,027.6,000.0,039.6,031.7,34.0,0000.0,0006.72,0003.78,0003.34
2023-06-23 01:45:00,SystemResetWarning,0830.9,5.00,000.00,031.9,027.8,000.0,039.6,031.8,33.8,0000.0,0006.79,0003.78,0003.33
2023-06-23 01:46:00,SystemResetWarning,0830.9,5.02,000.00,031.9,027.9,000.0,039.7,031.8,34.0,0000.0,0006.80,0003.79,0003.32
2023-06-23 01:47:00,SystemResetWarning,0830.9,5.00,000.00,031.9,028.1,000.0,039.7,031.8,34.3,0000.0,0007.58,0003.77,0003.31
2023-06-23 01:48:00,SystemResetWarning,0830.9,4.99,000.00,031.9,028.2,000.0,039.8,031.9,34.5,0000.0,0007.61,0003.77,0003.31
2023-06-23 01:49:00,SystemResetWarning,0830.9,5.00,000.00,031.9,028.3,000.0,039.8,031.9,34.8,0000.0,0007.45,0003.77,0003.31
2023-06-23 01:50:00,SystemResetWarning,0830.9,5.01,000.00,031.9,028.4,000.0,039.8,031.9,34.5,0000.0,0007.36,0003.76,0003.31
2023-06-23 01:51:00,SystemResetWarning,0830.9,4.99,000.00,031.9,028.4,000.0,039.9,032.0,34.1,0000.0,0007.39,0003.76,0003.30
2023-06-23 01:52:00,SystemResetWarning,0831.0,4.99,000.00,031.9,028.5,000.0,039.9,032.0,33.8,0000.0,0007.42,0003.75,0003.30
2023-06-23 01:53:00,SystemResetWarning,0830.9,5.00,000.00,031.9,028.6,000.0,039.9,032.0,33.4,0000.0,0007.42,0003.73,0003.30
2023-06-23 01:54:00,SystemResetWarning,0830.9,5.01,000.00,031.9,028.6,000.0,039.9,032.0,33.8,0000.0,0007.47,0003.74,0003.30
2023-06-23 01:55:00,SystemResetWarning,0830.9,5.00,000.00,031.9,028.0,000.0,039.9,032.1,33.6,0000.0,0007.40,0003.74,0003.30
2023-06-23 01:56:00,SystemResetWarning,0830.9,4.99,000.00,031.8,026.2,000.0,039.8,032.0,33.8,0000.0,0007.37,0003.74,0003.30
2023-06-23 01:57:00,SystemResetWarning,0831.0,5.01,000.00,031.8,025.5,000.0,039.8,032.0,33.4,0000.0,0007.37,0003.74,0003.32
2023-06-23 01:58:00,SystemResetWarning,0831.0,5.01,000.00,031.6,025.6,000.0,039.7,031.6,33.3,0000.0,0006.54,0003.78,0003.33
2023-06-23 01:59:00,SystemResetWarning,0831.1,5.00,000.00,031.5,026.0,000.0,039.7,031.6,33.3,0000.0,0006.43,0003.77,0003.33
